When you browse on this site, cookies collect data to enhance your experience and personalize the content and advertising you see.
Visit our Privacy Policy to learn more. By continuing to use the site, you agree to this use of cookies and data.
  • In Österreich
  • Länderverzeichnis
  • Für 7 Tage
  • Wassertemperatur
  • Wetterkarte
  • News
  • Widgets
  • user-avatar
    Anmelden

    Stündliche Wetter Darwin

    Heute, 25 Februar, Dienstag

    Zeit Temperatur Niederschläge Wind Luftdruck Luftfeuchtigkeit
    00:00 +30°C° 0 mm 7 m/S 755 mmHg 83%
    01:00 +30°C° 0 mm 7 m/S 755 mmHg 83%
    02:00 +30°C° 0 mm 7 m/S 754 mmHg 84%
    03:00 +30°C° 0 mm 7 m/S 754 mmHg 84%
    04:00 +30°C° 0 mm 7 m/S 754 mmHg 84%
    05:00 +30°C° 0 mm 7 m/S 754 mmHg 84%
    06:00 +29°C° 0 mm 7 m/S 754 mmHg 84%
    07:00 +30°C° 0 mm 7 m/S 754 mmHg 81%
    08:00 +32°C° 0 mm 7 m/S 755 mmHg 78%
    09:00 +33°C° 0 mm 7 m/S 755 mmHg 75%
    10:00 +34°C° 0 mm 7 m/S 755 mmHg 71%
    11:00 +35°C° 0 mm 7 m/S 754 mmHg 67%
    12:00 +37°C° 0 mm 8 m/S 754 mmHg 64%
    13:00 +37°C° 0 mm 8 m/S 754 mmHg 65%
    14:00 +37°C° 0 mm 8 m/S 753 mmHg 65%
    15:00 +37°C° 0 mm 8 m/S 752 mmHg 66%
    16:00 +35°C° 0 mm 8 m/S 752 mmHg 71%
    17:00 +33°C° 0 mm 7 m/S 752 mmHg 75%
    18:00 +32°C° 0 mm 6 m/S 752 mmHg 80%
    19:00 +32°C° 0 mm 6 m/S 753 mmHg 81%
    20:00 +32°C° 0 mm 6 m/S 753 mmHg 82%
    21:00 +32°C° 0 mm 6 m/S 753 mmHg 83%
    22:00 +32°C° 0 mm 7 m/S 753 mmHg 83%
    23:00 +32°C° 0 mm 7 m/S 753 mmHg 83%

    Morgen, 26 Februar, Mittwoch

    Zeit Temperatur Niederschläge Wind Luftdruck Luftfeuchtigkeit
    00:00 +32°C° 0 mm 8 m/S 753 mmHg 83%
    01:00 +31°C° 0.5 mm 8 m/S 753 mmHg 83%
    02:00 +31°C° 0.5 mm 8 m/S 753 mmHg 84%
    03:00 +31°C° 0.5 mm 8 m/S 752 mmHg 85%
    04:00 +30°C° 2.5 mm 7 m/S 752 mmHg 87%
    05:00 +29°C° 2.5 mm 7 m/S 753 mmHg 88%
    06:00 +29°C° 2.5 mm 6 m/S 753 mmHg 90%
    07:00 +30°C° 0.5 mm 7 m/S 753 mmHg 87%
    08:00 +32°C° 0.5 mm 7 m/S 754 mmHg 85%
    09:00 +32°C° 0.5 mm 7 m/S 754 mmHg 83%
    10:00 +32°C° 1.3 mm 7 m/S 754 mmHg 83%
    11:00 +32°C° 1.3 mm 7 m/S 754 mmHg 83%
    12:00 +32°C° 1.3 mm 7 m/S 753 mmHg 83%
    13:00 +32°C° 1.9 mm 8 m/S 753 mmHg 82%
    14:00 +32°C° 1.9 mm 8 m/S 752 mmHg 82%
    15:00 +32°C° 1.9 mm 8 m/S 751 mmHg 81%
    16:00 +32°C° 2.2 mm 8 m/S 751 mmHg 82%
    17:00 +31°C° 2.2 mm 8 m/S 752 mmHg 84%
    18:00 +31°C° 2.2 mm 8 m/S 752 mmHg 85%
    19:00 +31°C° 2.3 mm 8 m/S 752 mmHg 86%
    20:00 +29°C° 2.3 mm 7 m/S 753 mmHg 87%
    21:00 +29°C° 2.3 mm 7 m/S 753 mmHg 88%
    22:00 +29°C° 4.1 mm 7 m/S 753 mmHg 90%
    23:00 +28°C° 4.1 mm 7 m/S 753 mmHg 92%

    übermorgen, 27 Februar, Donnerstag

    Zeit Temperatur Niederschläge Wind Luftdruck Luftfeuchtigkeit
    00:00 +28°C° 4.1 mm 6 m/S 753 mmHg 94%
    01:00 +28°C° 2.9 mm 7 m/S 753 mmHg 93%
    02:00 +28°C° 2.9 mm 8 m/S 753 mmHg 92%
    03:00 +28°C° 2.9 mm 9 m/S 752 mmHg 90%
    04:00 +28°C° 0.5 mm 8 m/S 753 mmHg 90%
    05:00 +28°C° 0.5 mm 7 m/S 753 mmHg 90%
    06:00 +28°C° 0.5 mm 7 m/S 753 mmHg 90%
    07:00 +29°C° 0.1 mm 6 m/S 753 mmHg 89%
    08:00 +29°C° 0.1 mm 6 m/S 754 mmHg 87%
    09:00 +30°C° 0.1 mm 6 m/S 754 mmHg 85%
    10:00 +32°C° 0.5 mm 6 m/S 754 mmHg 82%
    11:00 +32°C° 0.5 mm 6 m/S 754 mmHg 78%
    12:00 +33°C° 0.5 mm 6 m/S 754 mmHg 74%
    13:00 +33°C° 2.1 mm 6 m/S 753 mmHg 76%
    14:00 +33°C° 2.1 mm 7 m/S 753 mmHg 78%
    15:00 +32°C° 2.1 mm 7 m/S 752 mmHg 81%
    16:00 +32°C° 2.2 mm 7 m/S 752 mmHg 83%
    17:00 +30°C° 2.2 mm 6 m/S 753 mmHg 86%
    18:00 +29°C° 2.2 mm 6 m/S 753 mmHg 88%
    19:00 +29°C° 1.5 mm 6 m/S 753 mmHg 89%
    20:00 +29°C° 1.5 mm 6 m/S 754 mmHg 90%
    21:00 +29°C° 1.5 mm 6 m/S 754 mmHg 90%
    22:00 +29°C° 1.7 mm 6 m/S 754 mmHg 90%
    23:00 +29°C° 1.7 mm 6 m/S 754 mmHg 90%

    28 Februar, Freitag

    Zeit Temperatur Niederschläge Wind Luftdruck Luftfeuchtigkeit
    00:00 +29°C° 1.7 mm 6 m/S 754 mmHg 90%
    01:00 +29°C° 3 mm 6 m/S 754 mmHg 90%
    02:00 +28°C° 3 mm 6 m/S 754 mmHg 90%
    03:00 +28°C° 3 mm 7 m/S 753 mmHg 90%
    04:00 +28°C° 2 mm 6 m/S 753 mmHg 91%
    05:00 +28°C° 2 mm 6 m/S 754 mmHg 91%
    06:00 +28°C° 2 mm 6 m/S 754 mmHg 92%
    07:00 +29°C° 2.2 mm 6 m/S 754 mmHg 90%
    08:00 +29°C° 2.2 mm 5 m/S 755 mmHg 88%
    09:00 +30°C° 2.2 mm 5 m/S 755 mmHg 86%
    10:00 +32°C° 1.3 mm 5 m/S 755 mmHg 83%
    11:00 +33°C° 1.3 mm 4 m/S 755 mmHg 80%
    12:00 +33°C° 1.3 mm 4 m/S 754 mmHg 77%
    13:00 +33°C° 0.6 mm 4 m/S 754 mmHg 76%
    14:00 +34°C° 0.6 mm 3 m/S 753 mmHg 75%
    15:00 +34°C° 0.6 mm 3 m/S 752 mmHg 74%
    16:00 +33°C° 0.5 mm 3 m/S 753 mmHg 78%
    17:00 +31°C° 0.5 mm 3 m/S 753 mmHg 82%
    18:00 +30°C° 0.5 mm 2 m/S 753 mmHg 86%
    19:00 +30°C° 0 mm 3 m/S 753 mmHg 87%
    20:00 +29°C° 0 mm 3 m/S 754 mmHg 88%
    21:00 +28°C° 0 mm 4 m/S 755 mmHg 90%
    22:00 +28°C° 0 mm 4 m/S 755 mmHg 90%
    23:00 +28°C° 0 mm 4 m/S 755 mmHg 90%

    29 Februar, Samstag

    Zeit Temperatur Niederschläge Wind Luftdruck Luftfeuchtigkeit
    00:00 +28°C° 0 mm 4 m/S 755 mmHg 90%
    01:00 +28°C° 0 mm 4 m/S 754 mmHg 90%
    02:00 +28°C° 0 mm 4 m/S 754 mmHg 90%
    03:00 +28°C° 0 mm 4 m/S 754 mmHg 91%
    04:00 +28°C° 0 mm 3 m/S 754 mmHg 91%
    05:00 +28°C° 0 mm 3 m/S 754 mmHg 91%
    06:00 +27°C° 0 mm 2 m/S 754 mmHg 91%
    07:00 +29°C° 0 mm 2 m/S 755 mmHg 87%
    08:00 +30°C° 0 mm 2 m/S 755 mmHg 83%
    09:00 +31°C° 0 mm 2 m/S 755 mmHg 79%
    10:00 +32°C° 0 mm 2 m/S 755 mmHg 74%
    11:00 +34°C° 0 mm 2 m/S 755 mmHg 68%
    12:00 +35°C° 0 mm 2 m/S 755 mmHg 63%
    13:00 +35°C° 0.1 mm 2 m/S 754 mmHg 63%
    14:00 +35°C° 0.1 mm 2 m/S 754 mmHg 63%
    15:00 +35°C° 0.1 mm 2 m/S 753 mmHg 63%
    16:00 +34°C° 0.2 mm 2 m/S 753 mmHg 68%
    17:00 +32°C° 0.2 mm 2 m/S 753 mmHg 73%
    18:00 +31°C° 0.2 mm 2 m/S 753 mmHg 77%
    19:00 +31°C° 0 mm 2 m/S 754 mmHg 80%
    20:00 +30°C° 0 mm 1 m/S 754 mmHg 82%
    21:00 +29°C° 0 mm 1 m/S 755 mmHg 85%
    22:00 +29°C° 0 mm 1 m/S 755 mmHg 86%
    23:00 +29°C° 0 mm 2 m/S 755 mmHg 87%

    1 März, Sonntag

    Zeit Temperatur Niederschläge Wind Luftdruck Luftfeuchtigkeit
    00:00 +28°C° 0 mm 2 m/S 755 mmHg 87%
    01:00 +28°C° 0 mm 2 m/S 755 mmHg 88%
    02:00 +28°C° 0 mm 2 m/S 754 mmHg 89%
    03:00 +28°C° 0 mm 2 m/S 754 mmHg 90%
    04:00 +28°C° 0 mm 1 m/S 754 mmHg 90%
    05:00 +28°C° 0 mm 1 m/S 754 mmHg 91%
    06:00 +27°C° 0 mm 1 m/S 755 mmHg 91%
    07:00 +29°C° 0 mm 1 m/S 755 mmHg 86%
    08:00 +31°C° 0 mm 1 m/S 756 mmHg 81%
    09:00 +32°C° 0 mm 1 m/S 756 mmHg 76%
    10:00 +33°C° 0 mm 1 m/S 756 mmHg 71%
    11:00 +34°C° 0 mm 1 m/S 755 mmHg 66%
    12:00 +36°C° 0 mm 2 m/S 755 mmHg 61%
    13:00 +36°C° 0 mm 2 m/S 754 mmHg 61%
    14:00 +36°C° 0 mm 2 m/S 754 mmHg 62%
    15:00 +36°C° 0 mm 2 m/S 753 mmHg 63%
    16:00 +35°C° 0.4 mm 2 m/S 753 mmHg 68%
    17:00 +34°C° 0.4 mm 2 m/S 753 mmHg 72%
    18:00 +32°C° 0.4 mm 2 m/S 753 mmHg 77%
    19:00 +31°C° 0.1 mm 2 m/S 754 mmHg 79%
    20:00 +30°C° 0.1 mm 2 m/S 755 mmHg 81%
    21:00 +29°C° 0.1 mm 2 m/S 755 mmHg 83%
    22:00 +29°C° 1 mm 2 m/S 755 mmHg 86%
    23:00 +28°C° 1 mm 2 m/S 755 mmHg 89%
    Mehr zeigen